IUS R/B(1), 26882

Orbit data source: Space-Track

IUS R/B(1), 26882 is space debris in HEO originally from a launch on Mon, 06 Aug 2001 UTC launched from the Air Force Eastern Test Range (AFETR). Debris objects in space refer to the collection of defunct objects orbiting the Earth. Examples of debris include non-operational satellites, rocket bodies, and fragments generated from explosions, collisions, or faulty payload assembly.

Loading next visibility...
Identifier
26882, 2001-033C
Orbit
HEO
Country
Flag of USUS
Related business
Manufacturer
PW CSD
Mission
Spacecraft
Bus & Motor
ORBUS 21, ORBUS 21
Mass
1,164 kg wet, 1,164 kg dry
Launch date (UTC)
2001-08-06 (25 years ago)
Launch vehicle
Unknown
Launch site
Air Force Eastern Test Range (AFETR)
Object type
Payload
Rocket body
Debris
Shape & HBR
Cyl, Unknown HBR
Radar Cross Section
8.491 m², Large (>1 m²)

Expand to show TLE details & history
Last TLE update: 4 days ago

TLE from 4 days ago
0 IUS R/B(1)
1 26882U 01033C   26124.35459286  .00000427  00000-0  78019-3 0  9991
2 26882  28.5520  22.2717 7075022 244.6798  29.1060  2.51202502 61457
Epoch: 2026-05-04T08:30Z
TLE epoch observation values (Epoch: 2026-05-04T08:30:36.823Z)
Latitude
0.00036°
Longitude
32.38649°
Altitude
10,022.383 km
Speed
5.583 km/s
True Right ascension
01h 29m 08s
True Declination
0° 00' 01"
Sunlit
Object was in daylight at epoch
Visualization orbit readout
Latitude
Unknown
Longitude
Unknown
Altitude
Unknown
Speed
Unknown
Apparent Right ascension
Unknown
Apparent Declination
Unknown
Sunlit
N/A
Visualization observer readout
Local Sidereal Time
07:36:11
Azimuth
Unknown
Elevation
Unknown
Doppler factor
Unknown
Orbital elements
Apogee altitude
32,659.385 km
Perigee altitude
309.052 km
Semi-major axis
22,862.356 km
Eccentricity
0.7075
Inclination
28.552°
RAAN
22.2717°
Arg. of periapsis
244.6798°
True anomaly
115.17103°
Mean anomaly
29.106°
Eccentric anomaly
66.19387°
Mean motion
0.62786 °/min
Orbital period
573.38 mins
BSTAR
0.00078019
Loading maneuver chart data...
Computing Atmospheric mass density...
Loading historical data...
Loading historical data...
Loading historical data...
Loading historical data...
Loading historical data...
Loading historical data...
Loading historical data...
Other satellites on launch #33 in the year 2001 (2001-08-06 UTC)

Documentation

Showing up to 5 results
|